This is the latest recevied weather packets stored in our database for station/object KC9MWQ-13. If no packets are shown the sender has not sent any weather packets the latest 10 day(s).
| Time | Temp. | Humidity | Pressure | Rain* | Wind** | Luminosity | Snow |
|---|---|---|---|---|---|---|---|
| 1778102258 | 13.89° C | 61% | 1014.3 hPa | 0 mm | - | 217 W/m² | - |
| 1778101954 | 14.44° C | 57% | 1014.3 hPa | 0 mm | - | 202 W/m² | - |
| 1778101651 | 13.89° C | 60% | 1014.2 hPa | 0 mm | - | 601 W/m² | - |
| 1778101348 | 13.89° C | 63% | 1014.4 hPa | 0 mm | - | 184 W/m² | - |
| 1778101045 | 14.44° C | 58% | 1014.4 hPa | 0 mm | - | 249 W/m² | - |
| 1778100741 | 13.89° C | 61% | 1014.5 hPa | 0 mm | - | 288 W/m² | - |
| 1778100438 | 14.44° C | 61% | 1014.3 hPa | 0 mm | - | 246 W/m² | - |
| 1778100135 | 13.89° C | 58% | 1014.5 hPa | 0 mm | - | 404 W/m² | - |
| 1778099833 | 13.89° C | 58% | 1014.5 hPa | 0 mm | - | 453 W/m² | - |
| 1778099530 | 13.33° C | 61% | 1014.4 hPa | 0 mm | - | 376 W/m² | - |
| 1778099228 | 13.33° C | 60% | 1014.3 hPa | 0 mm | - | 310 W/m² | - |
| 1778098923 | 13.33° C | 60% | 1014.5 hPa | 0 mm | - | 278 W/m² | - |
| 1778098621 | 13.89° C | 57% | 1014.7 hPa | 0 mm | - | 276 W/m² | - |
| 1778098317 | 13.89° C | 58% | 1014.6 hPa | 0 mm | - | 344 W/m² | - |
| 1778098014 | 13.89° C | 55% | 1014.4 hPa | 0 mm | - | 363 W/m² | - |
| 1778097711 | 15° C | 56% | 1014.6 hPa | 0 mm | - | 360 W/m² | - |
| 1778097407 | 13.89° C | 62% | 1014.7 hPa | 0 mm | - | 445 W/m² | - |
| 1778097103 | 13.33° C | 56% | 1014.7 hPa | 0 mm | - | 305 W/m² | - |
| 1778096801 | 13.33° C | 59% | 1014.6 hPa | 0 mm | - | 348 W/m² | - |
| 1778096497 | 13.89° C | 60% | 1014.6 hPa | 0 mm | - | 333 W/m² | - |
| 1778096195 | 13.33° C | 63% | 1014.7 hPa | 0 mm | - | 360 W/m² | - |
| 1778095892 | 13.89° C | 58% | 1014.6 hPa | 0 mm | - | 317 W/m² | - |
| 1778095589 | 13.33° C | 61% | 1014.5 hPa | 0 mm | - | 326 W/m² | - |
| 1778095285 | 13.33° C | 60% | 1014.7 hPa | 0 mm | - | 297 W/m² | - |
| 1778094982 | 13.33° C | 60% | 1014.9 hPa | 0 mm | - | 276 W/m² | - |
* Rain latest hour (hover to see other rain measurements)
** Current wind speed in m/s (hover to see current wind gust speed)